Freeport, IL

12:24 PM CDT on June 23, 2017 (GMT -0500)
Albertus

Weather History for KFEP - September, 2014

Change the Weather History Date:

Monday, September 22, 2014

  Actual Average Record
Temperature  
Mean Temperature 52 °F -  
Max Temperature 66 °F 67 °F 85 °F (1984)
Min Temperature 37 °F 46 °F 30 °F (1974)
Degree Days  
Heating Degree Days 14    
Growing Degree Days 2 (Base 50)    
Moisture  
Dew Point 43 °F    
Average Humidity 77    
Maximum Humidity 96    
Minimum Humidity 43    
Precipitation  
Precipitation 0.00 in - - ()
Sea Level Pressure  
Sea Level Pressure 30.27 in    
Wind  
Wind Speed 3 mph (WSW)    
Max Wind Speed 8 mph    
Max Gust Speed -    
Visibility 10 miles    
Events      
Averages and records for this station are not official NWS values.
T = Trace of Precipitation, MM = Missing Value Source: NWS Daily Summary

Daily Weather History Graph

Daily Weather History Graph

Search for Another Location

Airport or City:

Trip Planner

Search our weather history database for the weather conditions in past years. The results will help you decide how hot, cold, wet, or windy it might be!

Date:

Astronomy

Sep. 22, 2014 Rise Set
Actual Time 6:45 AM CDT 6:55 PM CDT
Civil Twilight 6:17 AM CDT 7:23 PM CDT
Nautical Twilight 5:44 AM CDT 7:56 PM CDT
Astronomical Twilight 5:11 AM CDT 8:29 PM CDT
Moon 5:13 AM CDT (9/22) 6:03 PM CDT (9/22)
Length of Visible Light 13h 05m
Length of Day
12h 09m
Waning Crescent, 2% of the Moon is Illuminated
Sep 22
Waning Crescent
Sep 24
New
Oct 1
First Quarter
Oct 8
Full
Oct 15
Last Quarter

Hourly Weather History & Observations

Time (CDT) Temp. Windchill Dew Point Humidity Pressure Visibility Wind Dir Wind Speed Gust Speed Precip Events Conditions
12:15 AM 45.0 °F 43.5 °F 42.6 °F 91% 30.20 in 10.0 mi WNW 3.5 mph - N/A   Clear
12:35 AM 45.0 °F - 43.0 °F 93% 30.21 in 10.0 mi Calm Calm - N/A   Clear
12:55 AM 45.5 °F 44.2 °F 43.3 °F 92% 30.21 in 10.0 mi NNW 3.5 mph - N/A   Clear
1:15 AM 45.0 °F 43.5 °F 42.8 °F 92% 30.21 in 10.0 mi NNW 3.5 mph - N/A   Clear
1:35 AM 44.8 °F 43.3 °F 42.8 °F 93% 30.22 in 10.0 mi NNW 3.5 mph - N/A   Clear
1:55 AM 44.8 °F - 43.2 °F 94% 30.22 in 10.0 mi Calm Calm - N/A   Clear
2:15 AM 43.7 °F 41.1 °F 41.9 °F 93% 30.23 in 10.0 mi North 4.6 mph - N/A   Clear
2:35 AM 43.7 °F 41.1 °F 42.1 °F 94% 30.23 in 10.0 mi NNW 4.6 mph - N/A   Clear
2:55 AM 43.7 °F 42.1 °F 41.9 °F 93% 30.23 in 10.0 mi NNW 3.5 mph - N/A   Clear
3:15 AM 43.7 °F - 41.9 °F 93% 30.23 in 10.0 mi Calm Calm - N/A   Clear
3:35 AM 42.3 °F - 40.6 °F 94% 30.23 in 7.0 mi Calm Calm - N/A   Clear
3:55 AM 42.3 °F - 41.0 °F 95% 30.24 in 10.0 mi Calm Calm - N/A   Clear
4:15 AM 39.7 °F - 38.5 °F 95% 30.25 in 10.0 mi Calm Calm - N/A   Clear
4:35 AM 39.9 °F 37.8 °F 38.5 °F 95% 30.25 in 2.5 mi WNW 3.5 mph - N/A   Clear
4:55 AM 39.7 °F - 38.5 °F 95% 30.25 in 2.5 mi Calm Calm - N/A   Clear
5:15 AM 37.4 °F - 36.0 °F 95% 30.26 in 10.0 mi Calm Calm - N/A   Clear
5:35 AM 37.4 °F - 36.1 °F 95% 30.27 in 10.0 mi Calm Calm - N/A   Clear
5:55 AM 38.7 °F - 37.6 °F 96% 30.28 in 10.0 mi Calm Calm - N/A   Clear
6:15 AM 38.3 °F - 36.9 °F 95% 30.28 in 10.0 mi Calm Calm - N/A   Clear
6:35 AM 39.4 °F - 38.3 °F 96% 30.29 in 10.0 mi Calm Calm - N/A   Clear
6:55 AM 37.6 °F - 36.3 °F 95% 30.29 in 1.8 mi Calm Calm - N/A   Mist
7:15 AM 37.4 °F 34.9 °F 36.1 °F 95% 30.30 in 10.0 mi SW 3.5 mph - N/A   Clear
7:35 AM 39.4 °F - 38.3 °F 96% 30.31 in 10.0 mi Calm Calm - N/A   Clear
7:55 AM 42.3 °F - 41.2 °F 96% 30.31 in 10.0 mi Calm Calm - N/A   Clear
8:15 AM 43.7 °F - 42.1 °F 94% 30.31 in 10.0 mi Calm Calm - N/A   Clear
8:35 AM 45.1 °F - 43.0 °F 92% 30.31 in 10.0 mi Calm Calm - N/A   Clear
8:55 AM 46.2 °F - 43.9 °F 92% 30.32 in 10.0 mi Calm Calm - N/A   Clear
9:15 AM 50.0 °F - 46.8 °F 89% 30.32 in 10.0 mi Calm Calm - N/A   Clear
9:35 AM 52.3 °F - 48.0 °F 85% 30.32 in 10.0 mi Calm Calm - N/A   Clear
9:55 AM 52.3 °F - 46.2 °F 80% 30.33 in 10.0 mi WSW 3.5 mph - N/A   Clear
10:15 AM 54.9 °F - 46.4 °F 73% 30.34 in 10.0 mi Calm Calm - N/A   Clear
10:35 AM 57.2 °F - 46.4 °F 67% 30.34 in 10.0 mi West 4.6 mph - N/A   Clear
10:55 AM 57.4 °F - 44.8 °F 63% 30.33 in 10.0 mi SW 3.5 mph - N/A   Clear
11:15 AM 57.7 °F - 43.9 °F 60% 30.33 in 10.0 mi WSW 3.5 mph - N/A   Clear
11:35 AM 59.9 °F - 42.8 °F 53% 30.33 in 10.0 mi West 4.6 mph - N/A   Clear
11:55 AM 59.9 °F - 43.9 °F 55% 30.33 in 10.0 mi West 6.9 mph - N/A   Clear
12:15 PM 60.3 °F - 42.3 °F 51% 30.32 in 10.0 mi South 3.5 mph - N/A   Clear
12:35 PM 62.6 °F - 43.7 °F 50% 30.32 in 10.0 mi SW 3.5 mph - N/A   Clear
12:55 PM 62.6 °F - 43.2 °F 49% 30.32 in 10.0 mi WNW 8.1 mph - N/A   Clear
1:15 PM 62.6 °F - 42.4 °F 48% 30.31 in 10.0 mi West 6.9 mph - N/A   Clear
1:30 PM 63.0 °F - 43.3 °F 49% 30.31 in 10.0 mi WNW 3.5 mph - N/A   Clear
2:41 PM 66.2 °F - 44.6 °F 46% 30.28 in 10.0 mi WSW 6.9 mph - N/A   Unknown
3:21 PM 66.2 °F - 42.8 °F 43% 30.26 in 10.0 mi NW 5.8 mph - N/A   Unknown
4:40 PM 66.4 °F - 43.2 °F 43% 30.25 in 10.0 mi Calm Calm - N/A   Clear
4:55 PM 66.2 °F - 43.5 °F 44% 30.25 in 10.0 mi West 5.8 mph - N/A   Clear
5:15 PM 66.4 °F - 44.1 °F 44% 30.24 in 10.0 mi WNW 5.8 mph - N/A   Clear
5:35 PM 66.2 °F - 44.8 °F 46% 30.25 in 10.0 mi West 3.5 mph - N/A   Clear
5:55 PM 65.3 °F - 44.8 °F 47% 30.24 in 10.0 mi West 5.8 mph - N/A   Clear
6:15 PM 64.6 °F - 45.1 °F 49% 30.24 in 10.0 mi West 3.5 mph - N/A   Clear
6:35 PM 61.5 °F - 47.1 °F 59% 30.24 in 10.0 mi SW 4.6 mph - N/A   Clear
6:55 PM 59.9 °F - 47.1 °F 63% 30.24 in 10.0 mi SW 4.6 mph - N/A   Clear
7:15 PM 56.3 °F - 47.7 °F 73% 30.24 in 10.0 mi SSW 4.6 mph - N/A   Clear
7:35 PM 54.7 °F - 46.9 °F 75% 30.24 in 10.0 mi SSW 4.6 mph - N/A   Clear
7:55 PM 55.2 °F - 46.6 °F 73% 30.25 in 10.0 mi SSW 4.6 mph - N/A   Clear
8:15 PM 53.1 °F - 46.0 °F 77% 30.25 in 10.0 mi SSW 3.5 mph - N/A   Clear
8:35 PM 50.0 °F - 45.9 °F 86% 30.26 in 10.0 mi SSW 4.6 mph - N/A   Clear
8:55 PM 51.6 °F - 46.2 °F 82% 30.26 in 10.0 mi SW 4.6 mph - N/A   Clear
9:15 PM 51.3 °F - 45.9 °F 82% 30.27 in 10.0 mi SSW 3.5 mph - N/A   Clear
9:35 PM 50.0 °F - 46.4 °F 87% 30.27 in 10.0 mi SSW 5.8 mph - N/A   Clear
9:55 PM 49.5 °F - 45.0 °F 84% 30.28 in 10.0 mi SSW 4.6 mph - N/A   Clear
10:15 PM 50.5 °F - 45.0 °F 81% 30.28 in 10.0 mi SSW 4.6 mph - N/A   Clear
10:35 PM 51.6 °F - 44.8 °F 77% 30.28 in 10.0 mi SSW 3.5 mph - N/A   Clear
10:55 PM 50.7 °F - 44.6 °F 80% 30.28 in 10.0 mi SSW 3.5 mph - N/A   Clear
11:15 PM 49.6 °F - 43.9 °F 81% 30.28 in 10.0 mi Calm Calm - N/A   Clear
11:35 PM 48.9 °F - 43.7 °F 82% 30.28 in 10.0 mi Calm Calm - N/A   Clear
11:55 PM 49.6 °F - 44.1 °F 81% 30.27 in 10.0 mi Calm Calm - N/A   Clear